[[{"header":{"parameterUnit":"m.s-1","parameterCategory":2,"la1":30.2991,"la2":30.254,"lo1":-89.0895,"lo2":-89.0444,"dy":0.0017,"dx":0.0017,"nx":28,"ny":28,"refTime":"2024-06-12T03:00:00:Z","depth":"0","parameterNumber":2,"parameterNumberName":"U-component_of_CURRENTS"},"data":[0,0,0,0,0,0,0,0,0,0,0,0,0,0,0,0,0,0,0,0,0,0,0,0,0,0,0,0,0,0,0,0,0,0,0,0,0,0,0,0,0,0,0,0,0,0,0,0,0,0,0,0,0,0,0,0,0,0,0.0929,0.0928,0,0.0822,0.0821,0.082,0.0721,0.0719,0.0718,0.0717,0.0702,0.0703,0.0703,0,0,0,0,0,0,0,0,0,0,0,0,0,0.1028,0.1027,0.0929,0.0928,0.0927,0.0823,0.0821,0.082,0.0721,0.0719,0.0718,0.0717,0.0702,0.0703,0.0704,0,0,0,0,0,0,0,0,0,0,0,0,0,0.096,0.1027,0.093,0.0865,0.0858,0.0823,0.0821,0.0819,0.0721,0.0719,0.0718,0.0716,0.0702,0.0703,0.0704,0.0746,0,0,0.0707,0.0707,0,0,0,0,0,0,0,0,0.0964,0.0956,0.0876,0.0869,0.0862,0.0783,0.085,0.08,0.0722,0.0773,0.0717,0.0715,0.0739,0.0737,0.0719,0.0746,0.0745,0.0707,0.0708,0.0708,0.0708,0,0,0,0,0,0,0,0.0969,0.096,0.0887,0.0875,0.0866,0.0835,0.0823,0.084,0.0769,0.0768,0.0761,0.075,0.0736,0.0718,0.0719,0.0745,0.0707,0.0708,0.0709,0.0709,0.1031,0.1038,0,0,0,0,0,0,0.0985,0.0965,0.089,0.0884,0.091,0.0834,0.0821,0.081,0.0767,0.0758,0.0752,0.0746,0.0717,0.0717,0.0718,0.092,0.0708,0.0709,0.071,0.1023,0.1033,0.1041,0,0,0,0,0,0,0.0988,0.098,0.0895,0.0922,0.0909,0.0835,0.0823,0.0809,0.0796,0.0753,0.0745,0.0754,0.0716,0.0716,0.0793,0.0912,0.071,0.0711,0.1014,0.1026,0.1037,0.1225,0,0,0,0,0,0,0.0991,0.0981,0.0996,0.0923,0.0908,0.0911,0.0824,0.0808,0.0792,0.0783,0.0753,0.0748,0.0715,0.0792,0.0794,0.091,0.0711,0.1004,0.1019,0.1033,0.1209,0.1242,0.127,0,0,0,0,0,0.0995,0.1022,0.0997,0.0989,0.0925,0.0914,0.0905,0.0845,0.0794,0.082,0.0819,0.075,0.0889,0.0798,0.0799,0.0918,0.0997,0.1015,0.1032,0.1195,0.1236,0.127,0,0,0,0,0,0,0.1079,0.1013,0.0984,0.0991,0.0972,0.0898,0.0914,0.0863,0.0874,0.0875,0.0818,0.0818,0.0938,0.092,0.082,0.107,0.0946,0.0965,0.107,0.1108,0.1138,0.1136,0.0712,0,0,0,0,0,0.1105,0.1106,0.1047,0.1063,0.1056,0.0989,0.0978,0.0942,0.0929,0.0926,0.0913,0.0944,0.1015,0.1047,0.109,0.1204,0.1186,0.1301,0.1331,0.1357,0.1368,0.143,0.1464,0.11,0.11,0.1099,0,0,0.114,0.1109,0.1108,0.1082,0.1057,0.1091,0.0979,0.0986,0.1043,0.0932,0.1027,0.1035,0.107,0.1209,0.1265,0.1203,0.1471,0.1379,0.14,0.1397,0.1451,0.1485,0.1516,0.1112,0.111,0.1108,0,0,0.1217,0.119,0.1216,0.122,0.1202,0.1179,0.119,0.1149,0.1163,0.1244,0.1215,0.1301,0.1366,0.1436,0.1476,0.1711,0.1623,0.1739,0.189,0.1951,0.1979,0.2003,0.2078,0.2107,0.1761,0.1762,0.1762,0,0.1268,0.1278,0.1232,0.1274,0.1287,0.1232,0.1281,0.1318,0.1319,0.1346,0.1314,0.1454,0.149,0.1664,0.1774,0.1777,0.1782,0.1728,0.1982,0.2006,0.2027,0.2097,0.2126,0.1773,0.1771,0.177,0.1769,0,0.1357,0.1382,0.141,0.1444,0.1471,0.1507,0.1536,0.1586,0.1587,0.1595,0.1732,0.1784,0.1844,0.1924,0.1925,0.2128,0.2076,0.1996,0.1862,0.2073,0.2137,0.2164,0.1789,0.1785,0.1781,0.1779,0,0,0.1418,0.1456,0.1469,0.1494,0.1553,0.157,0.1712,0.1779,0.1831,0.1908,0.198,0.2179,0.2137,0.2189,0.2208,0.2313,0.2517,0.2239,0.2237,0.2269,0.266,0.2617,0.2641,0.2448,0.2453,0.2457,0.266,0,0.1495,0.1571,0.1591,0.1699,0.1732,0.176,0.1876,0.1951,0.1999,0.2073,0.2168,0.2252,0.2263,0.2287,0.2406,0.246,0.2589,0.247,0.2491,0.2493,0.2389,0.2672,0.2627,0.2802,0.2685,0.2689,0.2692,0,0.1566,0.1601,0.169,0.1765,0.1785,0.1861,0.1965,0.206,0.2182,0.2215,0.2308,0.2328,0.2528,0.2473,0.2702,0.2609,0.2677,0.2729,0.2734,0.2635,0.25,0.257,0.2853,0.2784,0.2732,0.2729,0.2726,0,0.157,0.1669,0.1725,0.1759,0.1855,0.1911,0.197,0.2086,0.2159,0.2284,0.2317,0.2486,0.2556,0.2683,0.2807,0.2753,0.3018,0.2929,0.2974,0.297,0.2911,0.2893,0.3084,0.3114,0.3114,0.3113,0.3113,0,0.1616,0.1666,0.1721,0.1754,0.1837,0.1901,0.1999,0.2075,0.2184,0.2262,0.2363,0.2446,0.2606,0.2748,0.2855,0.3015,0.3053,0.3072,0.3045,0.2986,0.2973,0.2882,0.2807,0.3121,0.3119,0.3118,0.3116,0,0.1609,0.1647,0.1712,0.1801,0.1833,0.1886,0.2,0.206,0.2157,0.2258,0.23,0.2457,0.2629,0.2792,0.3005,0.3064,0.3152,0.3257,0.3192,0.3155,0.3094,0.303,0.3057,0.2971,0.336,0.336,0.3361,0,0.1604,0.1628,0.1722,0.1757,0.1797,0.1877,0.193,0.204,0.2096,0.2256,0.2297,0.2484,0.2595,0.2901,0.3072,0.3282,0.3172,0.3338,0.3249,0.3162,0.3072,0.2909,0.282,0.328,0.3279,0.3279,0.3279,0,0.1586,0.1614,0.1659,0.1727,0.1782,0.1858,0.193,0.1973,0.2088,0.2164,0.227,0.2372,0.2656,0.2849,0.3113,0.3232,0.3181,0.3336,0.3277,0.3087,0.2894,0.277,0.3072,0.3277,0.3277,0.3278,0.3278,0.3278,0.1552,0.1578,0.162,0.1692,0.1747,0.1803,0.1838,0.1902,0.1971,0.2063,0.2199,0.2328,0.2645,0.3002,0.3111,0.3258,0.3153,0.3231,0.3189,0.3052,0.2892,0.3201,0.3327,0.3328,0.3328,0.3329,0.3329,0,0.1486,0.1527,0.1584,0.1647,0.1676,0.174,0.1807,0.1818,0.1844,0.1979,0.2072,0.2373,0.2623,0.2884,0.3175,0.3152,0.3024,0.3077,0.2867,0.2805,0.3148,0.3066,0.3103,0.3103,0.3103,0.3103,0.3103,0.3103,0.1441,0.1469,0.1514,0.1547,0.1594,0.1604,0.163,0.1649,0.1724,0.1842,0.1989,0.2164,0.2539,0.2912,0.306,0.3027,0.2809,0.2708,0.2633,0.2909,0.2919,0.2929,0.2839,0.2827,0.2827,0.2221,0.2217,0.2213]},{"header":{"parameterUnit":"m.s-1","parameterCategory":2,"la1":30.2991,"la2":30.254,"lo1":-89.0895,"lo2":-89.0444,"dy":0.0017,"dx":0.0017,"nx":28,"ny":28,"refTime":"2024-06-12T03:00:00:Z","depth":"0","parameterNumber":3,"parameterNumberName":"V-component_of_CURRENTS"},"data":[0,0,0,0,0,0,0,0,0,0,0,0,0,0,0,0,0,0,0,0,0,0,0,0,0,0,0,0,0,0,0,0,0,0,0,0,0,0,0,0,0,0,0,0,0,0,0,0,0,0,0,0,0,0,0,0,0,0,-0.104,-0.1043,0,-0.1191,-0.1192,-0.1193,-0.1273,-0.1274,-0.1275,-0.1276,-0.1163,-0.1159,-0.1155,0,0,0,0,0,0,0,0,0,0,0,0,0,-0.0662,-0.0668,-0.104,-0.1043,-0.1046,-0.1191,-0.1192,-0.1194,-0.1272,-0.1274,-0.1275,-0.1276,-0.1164,-0.116,-0.1155,0,0,0,0,0,0,0,0,0,0,0,0,0,-0.0812,-0.067,-0.104,-0.111,-0.1118,-0.1191,-0.1192,-0.1194,-0.1272,-0.1274,-0.1275,-0.1277,-0.1166,-0.116,-0.1154,-0.1087,0,0,-0.1136,-0.1133,0,0,0,0,0,0,0,0,-0.0803,-0.0824,-0.1097,-0.1105,-0.1115,-0.1223,-0.1019,-0.1148,-0.1272,-0.1203,-0.1276,-0.1277,-0.1164,-0.1158,-0.1173,-0.1082,-0.1077,-0.1136,-0.1132,-0.1129,-0.1128,0,0,0,0,0,0,0,-0.0793,-0.0817,-0.109,-0.11,-0.1111,-0.108,-0.1104,-0.1043,-0.116,-0.1209,-0.1218,-0.125,-0.1166,-0.1179,-0.117,-0.1075,-0.1136,-0.113,-0.1127,-0.1124,-0.0851,-0.0847,0,0,0,0,0,0,-0.0802,-0.0809,-0.1086,-0.1096,-0.0971,-0.1087,-0.1113,-0.1179,-0.1167,-0.1172,-0.1249,-0.1253,-0.1188,-0.1177,-0.1166,-0.102,-0.1129,-0.1124,-0.112,-0.0854,-0.085,-0.0846,0,0,0,0,0,0,-0.0794,-0.0826,-0.108,-0.096,-0.0992,-0.1094,-0.1166,-0.1181,-0.1195,-0.1202,-0.12,-0.1248,-0.1189,-0.1175,-0.1091,-0.1018,-0.1121,-0.1116,-0.0859,-0.0853,-0.0848,-0.0767,0,0,0,0,0,0,-0.0783,-0.0823,-0.0844,-0.0963,-0.1,-0.1093,-0.1167,-0.1184,-0.1217,-0.1224,-0.1199,-0.1192,-0.1189,-0.11,-0.1085,-0.1012,-0.1111,-0.0864,-0.0856,-0.085,-0.0774,-0.0759,-0.0746,0,0,0,0,0,-0.0769,-0.0791,-0.0845,-0.0877,-0.1037,-0.1093,-0.1105,-0.1175,-0.1215,-0.1195,-0.1184,-0.1193,-0.1045,-0.1092,-0.1076,-0.0999,-0.0867,-0.0858,-0.085,-0.078,-0.0762,-0.0747,0,0,0,0,0,0,-0.063,-0.0806,-0.0866,-0.0942,-0.1002,-0.1109,-0.1101,-0.1161,-0.1144,-0.1138,-0.1149,-0.1137,-0.1037,-0.1021,-0.1073,-0.0897,-0.0954,-0.0942,-0.0906,-0.0889,-0.0875,-0.0859,-0.1106,0,0,0,0,0,-0.0616,-0.0681,-0.0822,-0.0868,-0.0899,-0.0996,-0.1023,-0.1075,-0.1099,-0.1098,-0.1086,-0.1047,-0.0988,-0.0945,-0.0894,-0.0792,-0.0812,-0.0728,-0.0714,-0.0703,-0.0676,-0.0672,-0.0657,-0.0818,-0.0819,-0.0819,0,0,-0.0576,-0.0678,-0.0716,-0.0841,-0.0893,-0.0894,-0.1011,-0.1041,-0.1016,-0.1076,-0.0998,-0.0995,-0.0951,-0.0849,-0.08,-0.0826,-0.0665,-0.0692,-0.0683,-0.0662,-0.0662,-0.0647,-0.0633,-0.0813,-0.0814,-0.0815,0,0,-0.0499,-0.0615,-0.0626,-0.0668,-0.0753,-0.0806,-0.0811,-0.0899,-0.0906,-0.0853,-0.0885,-0.0842,-0.0751,-0.0719,-0.0687,-0.0554,-0.0599,-0.0532,-0.0437,-0.0434,-0.0422,-0.0412,-0.0424,-0.0415,-0.0518,-0.0517,-0.0517,0,-0.0441,-0.0494,-0.0621,-0.0619,-0.0633,-0.0756,-0.0725,-0.0739,-0.0778,-0.0759,-0.0798,-0.0703,-0.0681,-0.0568,-0.0531,-0.0521,-0.0543,-0.0514,-0.0421,-0.041,-0.0401,-0.0417,-0.0408,-0.0513,-0.0513,-0.0514,-0.0514,0,-0.0367,-0.039,-0.0384,-0.0435,-0.045,-0.0445,-0.0505,-0.0491,-0.0524,-0.0552,-0.0475,-0.0478,-0.0433,-0.0411,-0.0426,-0.0333,-0.0378,-0.0418,-0.0477,-0.0381,-0.0402,-0.0395,-0.0506,-0.0507,-0.0509,-0.051,0,0,-0.0298,-0.0332,-0.0327,-0.0311,-0.0358,-0.0369,-0.0301,-0.0294,-0.0264,-0.0272,-0.0223,-0.0151,-0.0217,-0.0184,-0.0217,-0.0206,-0.0173,-0.0277,-0.0279,-0.0312,-0.0182,-0.0186,-0.018,-0.0216,-0.0214,-0.0212,-0.0229,0,-0.0197,-0.0147,-0.019,-0.0107,-0.0084,-0.0144,-0.0082,-0.0082,-0.0094,-0.0069,-0.0084,-0.0052,-0.011,-0.0117,-0.0106,-0.016,-0.0148,-0.0166,-0.0248,-0.025,-0.0284,-0.0168,-0.0186,-0.0199,-0.0222,-0.0221,-0.022,0,-0.0109,-0.0091,-0.0004,0.0031,0.0035,0.007,0.011,0.0143,0.0154,0.0142,0.0152,0.0102,0.0131,0.0039,0.0021,0.0003,-0.0065,-0.0116,-0.0119,-0.014,-0.0238,-0.0292,-0.0186,-0.0358,-0.021,-0.021,-0.0211,0,-0.0009,0.0044,0.0117,0.0127,0.0147,0.0185,0.0194,0.0209,0.0231,0.0246,0.0247,0.0256,0.0236,0.0181,0.0079,0.0041,0.0035,-0.0041,-0.0099,-0.0102,-0.0136,-0.0145,-0.022,-0.0042,-0.0042,-0.0042,-0.0041,0,0.0097,0.0159,0.0162,0.0196,0.0274,0.0259,0.0325,0.0333,0.0344,0.0372,0.0333,0.0352,0.0265,0.0235,0.0137,0.0062,0.008,-0.0043,-0.0084,-0.0106,-0.0112,-0.028,-0.0375,-0.0042,-0.0042,-0.0042,-0.0042,0,0.0188,0.02,0.0269,0.0302,0.0314,0.0354,0.0369,0.0398,0.0409,0.0439,0.044,0.043,0.0397,0.0314,0.0226,0.0134,-0.0029,0.0019,-0.0002,-0.0043,-0.0263,-0.0351,-0.0407,-0.0478,-0.0044,-0.0044,-0.0044,0,0.0239,0.0283,0.0323,0.0336,0.0344,0.0387,0.0401,0.0422,0.0437,0.0484,0.0496,0.0496,0.0499,0.0398,0.0257,0.013,-0.0024,0.0003,-0.0055,-0.0234,-0.0364,-0.0414,-0.0474,-0.0083,-0.0083,-0.0083,-0.0083,0,0.0308,0.031,0.0337,0.0366,0.0383,0.0423,0.0444,0.0479,0.0498,0.0544,0.0594,0.0615,0.0536,0.0441,0.0284,0.016,-0.0114,-0.0005,-0.0183,-0.0364,-0.0429,-0.0533,-0.0135,-0.0085,-0.0085,-0.0085,-0.0085,-0.0084,0.0319,0.0334,0.0337,0.0368,0.0396,0.0431,0.047,0.0512,0.0574,0.0677,0.0682,0.0784,0.0615,0.0417,0.0212,-0.0154,-0.0138,-0.0286,-0.0369,-0.0397,-0.0475,-0.0069,-0.007,-0.007,-0.0069,-0.0069,-0.0069,0,0.0294,0.0297,0.0327,0.0351,0.0383,0.0406,0.047,0.0534,0.0625,0.0786,0.087,0.0905,0.0625,0.0336,-0.0132,-0.0447,-0.0579,-0.0634,-0.0739,-0.0777,-0.0418,-0.0432,-0.0518,-0.0518,-0.0518,-0.0518,-0.0518,-0.0518,0.0266,0.026,0.0277,0.0311,0.0343,0.0408,0.0455,0.0593,0.074,0.0989,0.1145,0.1242,0.1035,0.007,-0.0644,-0.0833,-0.1065,-0.1099,-0.1204,-0.1015,-0.0991,-0.0968,-0.1003,-0.1208,-0.1209,-0.1537,-0.1541,-0.1543]}],[{"header":{"parameterUnit":"m.s-1","parameterCategory":2,"la1":30.2991,"la2":30.254,"lo1":-89.0895,"lo2":-89.0444,"dy":0.0017,"dx":0.0017,"nx":28,"ny":28,"refTime":"2024-06-12T03:00:00:Z","depth":"2","parameterNumber":2,"parameterNumberName":"U-component_of_CURRENTS"},"data":[0,0,0,0,0,0,0,0,0,0,0,0,0,0,0,0,0,0,0,0,0,0,0,0,0,0,0,0,0,0,0,0,0,0,0,0,0,0,0,0,0,0,0,0,0,0,0,0,0,0,0,0,0,0,0,0,0,0,0.1026,0.1025,0,0.0959,0.0958,0.0957,0.094,0.094,0.0941,0.0941,0.0905,0.0904,0.0903,0,0,0,0,0,0,0,0,0,0,0,0,0,0.1056,0.1057,0.1026,0.1025,0.1024,0.0959,0.0958,0.0957,0.094,0.094,0.0941,0.0941,0.0906,0.0904,0.0902,0,0,0,0,0,0,0,0,0,0,0,0,0,0.1022,0.1057,0.1026,0.1008,0.1005,0.0959,0.0958,0.0957,0.094,0.094,0.0941,0.0941,0.0906,0.0904,0.0902,0.0878,0,0,0.0896,0.0895,0,0,0,0,0,0,0,0,0.1024,0.1021,0.1011,0.1009,0.1006,0.0958,0.0956,0.0932,0.0939,0.0964,0.0941,0.0942,0.0925,0.0922,0.0907,0.0876,0.0874,0.0896,0.0895,0.0894,0.0893,0,0,0,0,0,0,0,0.1027,0.1023,0.0999,0.101,0.1007,0.0974,0.0971,0.095,0.0943,0.0962,0.0961,0.0953,0.0924,0.0909,0.0907,0.0874,0.0896,0.0894,0.0893,0.0892,0.1008,0.1012,0,0,0,0,0,0,0.1038,0.1026,0.1001,0.0997,0.1017,0.0974,0.097,0.0973,0.0942,0.0938,0.0953,0.0953,0.0912,0.0909,0.0905,0.1018,0.0894,0.0892,0.0891,0.1004,0.1009,0.1013,0,0,0,0,0,0,0.104,0.1037,0.1004,0.1009,0.1003,0.0973,0.0976,0.0971,0.0964,0.0935,0.0931,0.0952,0.0913,0.0908,0.0937,0.1011,0.0891,0.0889,0.0999,0.1005,0.1011,0.1152,0,0,0,0,0,0,0.1041,0.1038,0.1044,0.1011,0.1003,0.1005,0.0976,0.097,0.0958,0.0957,0.0932,0.0929,0.0913,0.0941,0.0935,0.1006,0.0888,0.0993,0.1001,0.1009,0.1142,0.1162,0.118,0,0,0,0,0,0.1042,0.1055,0.1045,0.1042,0.1013,0.1006,0.1,0.0979,0.0957,0.0971,0.0973,0.093,0.0989,0.0942,0.0934,0.1007,0.0989,0.0999,0.1008,0.1133,0.1158,0.1179,0,0,0,0,0,0,0.1083,0.1053,0.1042,0.1048,0.1039,0.1004,0.1009,0.0983,0.0987,0.0994,0.0959,0.0958,0.102,0.0994,0.0942,0.1072,0.0992,0.1001,0.109,0.1112,0.1131,0.1122,0.0886,0,0,0,0,0,0.1091,0.1091,0.1064,0.1075,0.1072,0.1038,0.1029,0.1019,0.1013,0.1014,0.1003,0.1015,0.1051,0.1064,0.1079,0.1123,0.1113,0.1177,0.1196,0.1212,0.1206,0.1256,0.1278,0.1045,0.1045,0.1045,0,0,0.1108,0.1095,0.1093,0.1083,0.1073,0.1096,0.1036,0.1041,0.1076,0.101,0.1063,0.1068,0.1078,0.1154,0.118,0.114,0.1286,0.1224,0.1237,0.1222,0.1268,0.129,0.131,0.1051,0.105,0.1049,0,0,0.1157,0.1137,0.1158,0.1157,0.1151,0.1139,0.1144,0.1126,0.1136,0.1181,0.1168,0.1211,0.1243,0.1275,0.1294,0.1419,0.1382,0.1443,0.1528,0.1579,0.1597,0.1613,0.1674,0.1694,0.1456,0.1456,0.1456,0,0.1177,0.1192,0.1166,0.1197,0.1191,0.1167,0.1192,0.1217,0.1218,0.1225,0.1231,0.1302,0.1308,0.1395,0.1466,0.1459,0.1484,0.1435,0.16,0.1615,0.1629,0.1687,0.1707,0.1464,0.1463,0.1462,0.1462,0,0.1241,0.1254,0.1271,0.1299,0.1307,0.1317,0.1339,0.1364,0.1372,0.1381,0.1457,0.1485,0.1515,0.156,0.1557,0.1672,0.166,0.1613,0.1532,0.1661,0.1715,0.1733,0.1475,0.1473,0.147,0.1468,0,0,0.125,0.1298,0.1303,0.1304,0.1341,0.1338,0.1426,0.1453,0.1482,0.1546,0.1589,0.1695,0.1682,0.1704,0.1712,0.1779,0.1926,0.1756,0.1755,0.1798,0.2063,0.1931,0.1938,0.1912,0.1915,0.1918,0.2077,0,0.1288,0.1336,0.1365,0.1407,0.1407,0.1425,0.1492,0.1532,0.1574,0.1628,0.1685,0.1746,0.175,0.1777,0.1851,0.189,0.1975,0.1888,0.1946,0.1948,0.1799,0.1954,0.1827,0.1946,0.2094,0.2097,0.2099,0,0.1318,0.1328,0.137,0.1392,0.1398,0.1445,0.148,0.1544,0.1639,0.1679,0.1757,0.1792,0.1912,0.1892,0.2046,0.1995,0.205,0.2089,0.2094,0.1922,0.1848,0.1835,0.1973,0.2128,0.2126,0.2124,0.2122,0,0.1258,0.1318,0.1331,0.1342,0.1395,0.142,0.1458,0.1542,0.1585,0.1711,0.1758,0.1881,0.1944,0.2045,0.2131,0.2108,0.2287,0.2246,0.2188,0.218,0.2053,0.2026,0.2366,0.2366,0.2366,0.2365,0.2365,0,0.1233,0.1237,0.1301,0.1294,0.1307,0.1371,0.1416,0.1478,0.1584,0.1647,0.1771,0.1843,0.1988,0.2094,0.2172,0.2236,0.232,0.223,0.2217,0.2103,0.208,0.2197,0.2175,0.2371,0.237,0.2369,0.2368,0,0.1148,0.1204,0.12,0.1252,0.1276,0.1277,0.1374,0.1414,0.1531,0.1625,0.1674,0.184,0.1987,0.2112,0.2275,0.2259,0.2346,0.2345,0.2204,0.2168,0.2207,0.2191,0.2316,0.2312,0.231,0.2307,0.2305,0,0.1096,0.1095,0.1143,0.1154,0.1177,0.1213,0.1254,0.137,0.1429,0.1612,0.1652,0.1825,0.1941,0.2122,0.2159,0.2271,0.2328,0.2165,0.2072,0.223,0.2205,0.2194,0.2182,0.2005,0.2001,0.1998,0.1995,0,0.0974,0.1013,0.1018,0.106,0.1093,0.1133,0.1205,0.1243,0.1398,0.1492,0.164,0.1751,0.1908,0.1956,0.2046,0.2079,0.213,0.209,0.2336,0.1992,0.1937,0.1911,0.1911,0.1964,0.1967,0.1969,0.1971,0.1972,0.0882,0.0877,0.0933,0.0975,0.1014,0.1078,0.111,0.1205,0.1304,0.1441,0.1545,0.1671,0.1744,0.1814,0.1822,0.1827,0.1943,0.1892,0.1905,0.1921,0.1811,0.1748,0.1723,0.1725,0.1726,0.1727,0.1728,0,0.0793,0.0841,0.086,0.0929,0.0968,0.1026,0.1104,0.1142,0.125,0.135,0.1459,0.1415,0.1486,0.1589,0.1548,0.1539,0.1547,0.1498,0.1521,0.1552,0.158,0.1453,0.1272,0.127,0.1269,0.1267,0,0,0.0756,0.0784,0.0837,0.0903,0.0952,0.1008,0.1055,0.1109,0.1177,0.1205,0.1257,0.1375,0.1513,0.1344,0.1348,0.1314,0.1416,0.1271,0.1643,0.17,0.1725,0.1819,0.166,0,0,0,0,0]},{"header":{"parameterUnit":"m.s-1","parameterCategory":2,"la1":30.2991,"la2":30.254,"lo1":-89.0895,"lo2":-89.0444,"dy":0.0017,"dx":0.0017,"nx":28,"ny":28,"refTime":"2024-06-12T03:00:00:Z","depth":"2","parameterNumber":3,"parameterNumberName":"V-component_of_CURRENTS"},"data":[0,0,0,0,0,0,0,0,0,0,0,0,0,0,0,0,0,0,0,0,0,0,0,0,0,0,0,0,0,0,0,0,0,0,0,0,0,0,0,0,0,0,0,0,0,0,0,0,0,0,0,0,0,0,0,0,0,0,-0.0399,-0.04,0,-0.0435,-0.0435,-0.0435,-0.0459,-0.046,-0.046,-0.0461,-0.0482,-0.0483,-0.0483,0,0,0,0,0,0,0,0,0,0,0,0,0,-0.0355,-0.0355,-0.0399,-0.04,-0.0401,-0.0435,-0.0435,-0.0435,-0.0459,-0.046,-0.046,-0.0461,-0.0482,-0.0483,-0.0483,0,0,0,0,0,0,0,0,0,0,0,0,0,-0.0377,-0.0355,-0.0399,-0.0419,-0.0422,-0.0435,-0.0435,-0.0435,-0.0459,-0.046,-0.046,-0.0461,-0.0482,-0.0483,-0.0483,-0.047,0,0,-0.0483,-0.0484,0,0,0,0,0,0,0,0,-0.0376,-0.0379,-0.0416,-0.0418,-0.0421,-0.0446,-0.0428,-0.0447,-0.0459,-0.0441,-0.0461,-0.0461,-0.0471,-0.0472,-0.0473,-0.0471,-0.0472,-0.0483,-0.0484,-0.0484,-0.0484,0,0,0,0,0,0,0,-0.0374,-0.0377,-0.041,-0.0416,-0.042,-0.0428,-0.0431,-0.0431,-0.0449,-0.0443,-0.0446,-0.0455,-0.0472,-0.0472,-0.0473,-0.0472,-0.0483,-0.0484,-0.0484,-0.0484,-0.051,-0.051,0,0,0,0,0,0,-0.0376,-0.0376,-0.0409,-0.0412,-0.0403,-0.0428,-0.0432,-0.0435,-0.0449,-0.0453,-0.0454,-0.0456,-0.0472,-0.0473,-0.0474,-0.0493,-0.0484,-0.0484,-0.0484,-0.0509,-0.051,-0.0511,0,0,0,0,0,0,-0.0375,-0.0378,-0.0408,-0.0397,-0.0402,-0.0428,-0.0431,-0.0435,-0.046,-0.0458,-0.0461,-0.0478,-0.0472,-0.0474,-0.049,-0.0493,-0.0484,-0.0484,-0.0509,-0.051,-0.051,-0.051,0,0,0,0,0,0,-0.0373,-0.0377,-0.0395,-0.0397,-0.0403,-0.0431,-0.0431,-0.0435,-0.0464,-0.0467,-0.0479,-0.0481,-0.0473,-0.0489,-0.049,-0.0493,-0.0484,-0.0508,-0.0509,-0.051,-0.051,-0.0511,-0.0512,0,0,0,0,0,-0.0371,-0.0388,-0.0395,-0.0401,-0.0421,-0.0432,-0.0435,-0.0454,-0.0465,-0.0478,-0.0484,-0.0481,-0.0496,-0.049,-0.049,-0.0494,-0.0507,-0.0509,-0.051,-0.0509,-0.0511,-0.0512,0,0,0,0,0,0,-0.0367,-0.0392,-0.04,-0.0421,-0.0434,-0.0438,-0.0459,-0.0467,-0.0482,-0.049,-0.0487,-0.0488,-0.0504,-0.0503,-0.0496,-0.0506,-0.0502,-0.0504,-0.0501,-0.0503,-0.0504,-0.0477,-0.0485,0,0,0,0,0,-0.0377,-0.04,-0.0414,-0.0429,-0.0443,-0.0455,-0.0468,-0.0476,-0.0484,-0.0493,-0.0497,-0.0502,-0.0505,-0.0509,-0.0512,-0.0516,-0.0505,-0.0521,-0.0522,-0.0523,-0.0502,-0.0502,-0.05,-0.0515,-0.0515,-0.0515,0,0,-0.0374,-0.0395,-0.0405,-0.0432,-0.0445,-0.0447,-0.0464,-0.0487,-0.0481,-0.0492,-0.0496,-0.051,-0.051,-0.0513,-0.052,-0.0515,-0.0515,-0.0525,-0.0526,-0.0503,-0.0503,-0.0501,-0.05,-0.0516,-0.0515,-0.0515,0,0,-0.0361,-0.0405,-0.041,-0.0427,-0.0455,-0.0464,-0.0476,-0.0489,-0.0499,-0.0501,-0.051,-0.0529,-0.0526,-0.0528,-0.0527,-0.054,-0.0526,-0.0547,-0.0525,-0.0525,-0.0523,-0.0522,-0.0509,-0.0506,-0.0543,-0.0543,-0.0543,0,-0.0358,-0.0364,-0.0412,-0.0415,-0.0428,-0.0471,-0.0463,-0.0476,-0.0488,-0.0486,-0.0503,-0.0506,-0.0527,-0.0518,-0.0527,-0.0541,-0.053,-0.0517,-0.0525,-0.0523,-0.0521,-0.0509,-0.0506,-0.0543,-0.0543,-0.0543,-0.0543,0,-0.0331,-0.0347,-0.0356,-0.0373,-0.0395,-0.0405,-0.0428,-0.0444,-0.0464,-0.0464,-0.0472,-0.0496,-0.049,-0.0514,-0.0522,-0.0521,-0.0514,-0.053,-0.0516,-0.0519,-0.0507,-0.0503,-0.0544,-0.0544,-0.0544,-0.0544,0,0,-0.0283,-0.0328,-0.0326,-0.0333,-0.0379,-0.0385,-0.0394,-0.0402,-0.0386,-0.0419,-0.039,-0.0433,-0.045,-0.045,-0.0476,-0.0486,-0.0487,-0.0499,-0.0499,-0.0477,-0.047,-0.0538,-0.0541,-0.05,-0.0499,-0.0499,-0.0467,0,-0.0242,-0.024,-0.0271,-0.0266,-0.0277,-0.0322,-0.0318,-0.0335,-0.0346,-0.0331,-0.0372,-0.0359,-0.0423,-0.0417,-0.0443,-0.0462,-0.0476,-0.0492,-0.0477,-0.0476,-0.0529,-0.0539,-0.0492,-0.0466,-0.0464,-0.0463,-0.0463,0,-0.019,-0.0208,-0.0198,-0.0223,-0.0227,-0.0221,-0.0229,-0.0224,-0.0229,-0.0237,-0.0247,-0.0265,-0.0285,-0.0339,-0.0377,-0.0379,-0.0423,-0.0451,-0.0451,-0.0506,-0.0538,-0.0463,-0.046,-0.0457,-0.0457,-0.0458,-0.0458,0,-0.0137,-0.0148,-0.0144,-0.0155,-0.0189,-0.0178,-0.018,-0.0186,-0.0163,-0.016,-0.0135,-0.0173,-0.0164,-0.0229,-0.0309,-0.033,-0.0342,-0.0379,-0.0482,-0.0486,-0.0437,-0.044,-0.0409,-0.0409,-0.0409,-0.0409,-0.0409,0,-0.0093,-0.0087,-0.0113,-0.0117,-0.0091,-0.0123,-0.0076,-0.0086,-0.0061,-0.0017,-0.0072,-0.0037,-0.0134,-0.0161,-0.0257,-0.0354,-0.0305,-0.0469,-0.0485,-0.044,-0.0443,-0.0428,-0.043,-0.0408,-0.0408,-0.0408,-0.0409,0,-0.0049,-0.0065,-0.0062,-0.0079,-0.007,-0.0049,-0.0008,0.0033,0.004,0.0104,0.0113,0.0093,0.0044,-0.0064,-0.0149,-0.0273,-0.0367,-0.0418,-0.036,-0.0373,-0.0519,-0.0522,-0.0518,-0.0521,-0.0522,-0.0524,-0.0525,0,-0.0028,-0.0025,-0.0027,-0.0004,-0.0006,0.0031,0.0068,0.0081,0.0132,0.0184,0.0225,0.0206,0.0189,0.003,-0.0168,-0.0339,-0.0373,-0.0438,-0.0501,-0.0516,-0.0531,-0.0531,-0.0532,-0.0422,-0.0423,-0.0423,-0.0423,0,0.0,0.0001,-0.0001,0.0053,0.0096,0.0141,0.0201,0.0254,0.0284,0.0342,0.0417,0.0419,0.0251,0.0086,-0.0184,-0.0302,-0.0415,-0.0456,-0.0448,-0.0432,-0.0431,-0.0445,-0.0447,-0.0426,-0.0426,-0.0425,-0.0425,-0.0425,0.0029,0.0048,0.007,0.0124,0.0178,0.026,0.0317,0.0397,0.0492,0.0586,0.0555,0.0558,0.0329,-0.0004,-0.0209,-0.0429,-0.0455,-0.0535,-0.0531,-0.0526,-0.0551,-0.0557,-0.0578,-0.0578,-0.0579,-0.0579,-0.058,0,0.0069,0.0104,0.0155,0.023,0.0312,0.0316,0.0415,0.0496,0.0631,0.0682,0.0735,0.0537,0.0317,0.0074,-0.0263,-0.0498,-0.0471,-0.0547,-0.0463,-0.0461,-0.0458,-0.0476,-0.0484,-0.0485,-0.0485,-0.0485,0,0,0.0102,0.0162,0.0197,0.0348,0.0402,0.0504,0.0559,0.0689,0.0756,0.0836,0.0819,0.072,0.0389,0.0158,-0.013,-0.03,-0.0317,-0.0319,-0.0376,-0.024,-0.0234,-0.0438,-0.0463,0,0,0,0,0]}],[{"header":{"parameterUnit":"m.s-1","parameterCategory":2,"la1":30.2991,"la2":30.254,"lo1":-89.0895,"lo2":-89.0444,"dy":0.0017,"dx":0.0017,"nx":28,"ny":28,"refTime":"2024-06-12T03:00:00:Z","depth":"4","parameterNumber":2,"parameterNumberName":"U-component_of_CURRENTS"},"data":[0,0,0,0,0,0,0,0,0,0,0,0,0,0,0,0,0,0,0,0,0,0,0,0,0,0,0,0,0,0,0,0,0,0,0,0,0,0,0,0,0,0,0,0,0,0,0,0,0,0,0,0,0,0,0,0,0,0,0.0431,0.0432,0,0.0479,0.0479,0.048,0.0543,0.0545,0.0546,0.0547,0.0634,0.0635,0.0636,0,0,0,0,0,0,0,0,0,0,0,0,0,0.04,0.04,0.0431,0.0432,0.0433,0.0479,0.0479,0.048,0.0543,0.0545,0.0546,0.0548,0.0634,0.0635,0.0636,0,0,0,0,0,0,0,0,0,0,0,0,0,0.0424,0.04,0.0431,0.0472,0.0476,0.0479,0.048,0.048,0.0543,0.0545,0.0547,0.0548,0.0633,0.0635,0.0636,0.0607,0,0,0.0641,0.0642,0,0,0,0,0,0,0,0,0.0423,0.0425,0.0465,0.0469,0.0474,0.051,0.0501,0.0525,0.0542,0.0514,0.0547,0.0549,0.0596,0.0601,0.0601,0.0611,0.0615,0.0642,0.0642,0.0643,0.0644,0,0,0,0,0,0,0,0.0421,0.0423,0.0447,0.0466,0.0472,0.049,0.0496,0.0505,0.0542,0.0517,0.0522,0.0532,0.0599,0.0599,0.0604,0.0616,0.0641,0.0643,0.0644,0.0645,0.0703,0.0704,0,0,0,0,0,0,0.0418,0.0421,0.0446,0.0449,0.0456,0.0489,0.0495,0.0494,0.0542,0.0551,0.053,0.0535,0.0596,0.0602,0.0607,0.0674,0.0643,0.0645,0.0646,0.0703,0.0703,0.0704,0,0,0,0,0,0,0.0417,0.0419,0.0444,0.0439,0.0444,0.0488,0.0486,0.0494,0.0535,0.0552,0.0562,0.0568,0.0597,0.0605,0.0651,0.0675,0.0645,0.0647,0.0702,0.0703,0.0704,0.0745,0,0,0,0,0,0,0.0416,0.0418,0.0429,0.0439,0.0445,0.0472,0.0485,0.0494,0.0536,0.0544,0.0586,0.0594,0.06,0.0648,0.0652,0.0676,0.0648,0.0701,0.0702,0.0703,0.0743,0.0747,0.0751,0,0,0,0,0,0.0414,0.0411,0.0428,0.0433,0.0453,0.0474,0.0479,0.0514,0.0537,0.0557,0.0589,0.0595,0.0658,0.065,0.0655,0.068,0.0701,0.0702,0.0703,0.0741,0.0747,0.0751,0,0,0,0,0,0,0.0396,0.0418,0.0437,0.044,0.0472,0.0486,0.0508,0.0531,0.057,0.0586,0.0605,0.0614,0.066,0.0661,0.0652,0.0698,0.0679,0.0681,0.0706,0.0711,0.0715,0.0718,0.065,0,0,0,0,0,0.0397,0.0411,0.0434,0.0444,0.046,0.0491,0.051,0.0535,0.0563,0.0584,0.0612,0.0638,0.0658,0.0682,0.0694,0.0723,0.0714,0.074,0.0744,0.0747,0.0752,0.0756,0.0761,0.0708,0.0708,0.0708,0,0,0.0398,0.041,0.0421,0.0444,0.047,0.0491,0.0508,0.0544,0.0573,0.0585,0.0638,0.0654,0.0668,0.07,0.0721,0.0714,0.0757,0.0749,0.0752,0.0754,0.0758,0.0763,0.0768,0.0709,0.0709,0.0709,0,0,0.0394,0.0415,0.0427,0.0453,0.0496,0.0511,0.0531,0.0566,0.0599,0.0647,0.0657,0.0688,0.0732,0.0735,0.0744,0.0775,0.0774,0.0789,0.0819,0.0824,0.0829,0.0832,0.0823,0.0825,0.0795,0.0796,0.0796,0,0.0396,0.0409,0.0436,0.0455,0.048,0.0524,0.0546,0.0578,0.0627,0.0656,0.0678,0.0731,0.0742,0.0769,0.0785,0.0784,0.0789,0.0802,0.083,0.0833,0.0837,0.0826,0.0828,0.0798,0.0797,0.0797,0.0797,0,0.0396,0.0423,0.0433,0.0472,0.0501,0.0529,0.0573,0.0616,0.0665,0.0697,0.0756,0.077,0.0807,0.0811,0.0816,0.0843,0.0839,0.0831,0.0819,0.0845,0.0831,0.0833,0.0801,0.08,0.0799,0.0799,0,0,0.0351,0.0421,0.0426,0.0457,0.0515,0.0534,0.059,0.0644,0.0692,0.0746,0.08,0.0831,0.0855,0.0865,0.0868,0.0874,0.0897,0.0877,0.0876,0.0869,0.0911,0.0904,0.0905,0.0907,0.0908,0.0908,0.0891,0,0.0348,0.0384,0.0419,0.0467,0.0494,0.0555,0.0605,0.0665,0.0727,0.0789,0.0821,0.0875,0.0872,0.0904,0.091,0.0908,0.0905,0.0902,0.0885,0.0884,0.0877,0.0908,0.0911,0.0892,0.0892,0.0893,0.0893,0,0.0332,0.036,0.0402,0.0482,0.0501,0.0538,0.0626,0.068,0.0773,0.0829,0.0887,0.0923,0.0957,0.0947,0.0955,0.0964,0.0943,0.0928,0.0927,0.0908,0.0882,0.0861,0.0896,0.0896,0.0895,0.0895,0.0895,0,0.0284,0.0348,0.0382,0.0407,0.0498,0.054,0.0598,0.0695,0.0747,0.0859,0.0904,0.0963,0.0993,0.0994,0.0983,0.0985,0.0974,0.0964,0.0924,0.0922,0.0914,0.091,0.0948,0.0948,0.0948,0.0948,0.0948,0,0.0266,0.0293,0.0369,0.039,0.0443,0.0524,0.0598,0.0673,0.0774,0.0834,0.0922,0.0959,0.1011,0.1017,0.0999,0.0976,0.0986,0.0937,0.0925,0.093,0.0928,0.0914,0.091,0.0948,0.0948,0.0948,0.0948,0,0.0223,0.0273,0.0307,0.0394,0.0425,0.0467,0.0584,0.064,0.0748,0.0824,0.0864,0.0961,0.1006,0.1021,0.102,0.0989,0.0967,0.0939,0.0942,0.0929,0.0906,0.0905,0.0917,0.0917,0.0916,0.0916,0.0916,0,0.0215,0.0226,0.0288,0.0311,0.0356,0.0433,0.0493,0.0617,0.0672,0.0808,0.0829,0.0918,0.0976,0.0961,0.0991,0.0978,0.0955,0.093,0.0928,0.0919,0.0907,0.0905,0.0904,0.0916,0.0916,0.0916,0.0916,0,0.0182,0.0194,0.0217,0.0265,0.0316,0.0376,0.0469,0.0492,0.0638,0.0721,0.0805,0.0862,0.0909,0.0951,0.0953,0.0929,0.0955,0.0928,0.0928,0.0926,0.0918,0.0905,0.0905,0.0915,0.0915,0.0915,0.0915,0,0.0147,0.0144,0.0173,0.0216,0.0275,0.0327,0.0372,0.0459,0.0531,0.0685,0.0702,0.0807,0.0894,0.0922,0.0912,0.0923,0.0916,0.0876,0.0878,0.0879,0.0882,0.0868,0.0847,0,0,0,0,0,0.0124,0.012,0.0136,0.0176,0.0233,0.0284,0.0368,0.0418,0.0529,0.0575,0.0651,0.0709,0.0786,0.0828,0.0834,0.0886,0.0897,0.0888,0.0845,0.0912,0.0912,0.0923,0,0,0,0,0,0,0.0109,0.0112,0.0114,0.0151,0.0181,0.0249,0.0306,0.037,0.0409,0.0521,0.0561,0.067,0.0737,0.0777,0.0821,0.0836,0.0796,0.0957,0.0955,0.0911,0.0912,0.0912,0.0924,0,0,0,0,0]},{"header":{"parameterUnit":"m.s-1","parameterCategory":2,"la1":30.2991,"la2":30.254,"lo1":-89.0895,"lo2":-89.0444,"dy":0.0017,"dx":0.0017,"nx":28,"ny":28,"refTime":"2024-06-12T03:00:00:Z","depth":"4","parameterNumber":3,"parameterNumberName":"V-component_of_CURRENTS"},"data":[0,0,0,0,0,0,0,0,0,0,0,0,0,0,0,0,0,0,0,0,0,0,0,0,0,0,0,0,0,0,0,0,0,0,0,0,0,0,0,0,0,0,0,0,0,0,0,0,0,0,0,0,0,0,0,0,0,0,0.0283,0.0282,0,0.0207,0.0206,0.0205,0.0188,0.0189,0.019,0.0191,0.0043,0.0038,0.0033,0,0,0,0,0,0,0,0,0,0,0,0,0,0.0248,0.0249,0.0283,0.0282,0.0282,0.0208,0.0206,0.0204,0.0188,0.0189,0.019,0.0191,0.0044,0.0039,0.0033,0,0,0,0,0,0,0,0,0,0,0,0,0,0.0222,0.025,0.0283,0.0268,0.0267,0.0208,0.0206,0.0204,0.0187,0.0189,0.0191,0.0192,0.0046,0.0039,0.0032,-0.0044,0,0,0.0009,0.0006,0,0,0,0,0,0,0,0,0.0224,0.0223,0.0271,0.0269,0.0267,0.0213,0.014,0.0119,0.0187,0.0212,0.0191,0.0193,0.0095,0.0084,0.006,-0.0051,-0.0057,0.0009,0.0004,0.0001,-0.0001,0,0,0,0,0,0,0,0.0226,0.0225,0.0247,0.027,0.0268,0.021,0.0209,0.0135,0.014,0.021,0.021,0.0209,0.0093,0.0067,0.0056,-0.006,0.0009,0.0002,-0.0002,-0.0005,-0.0209,-0.021,0,0,0,0,0,0,0.0253,0.0228,0.025,0.0246,0.0255,0.021,0.0209,0.0225,0.0143,0.0134,0.0208,0.0209,0.0079,0.0065,0.0051,-0.0038,0.0001,-0.0006,-0.001,-0.0208,-0.0209,-0.0211,0,0,0,0,0,0,0.0253,0.0256,0.0253,0.0238,0.0234,0.0211,0.0228,0.0223,0.0201,0.0143,0.0132,0.0194,0.008,0.0061,-0.0017,-0.0044,-0.0009,-0.0016,-0.0207,-0.0209,-0.021,-0.022,0,0,0,0,0,0,0.0252,0.0257,0.0271,0.0241,0.0237,0.0212,0.0227,0.022,0.0201,0.0201,0.0127,0.0115,0.0079,-0.0006,-0.0024,-0.0053,-0.0021,-0.0206,-0.0208,-0.021,-0.0219,-0.0222,-0.0225,0,0,0,0,0,0.0252,0.0254,0.0272,0.0275,0.026,0.0212,0.0202,0.0186,0.0199,0.0175,0.0133,0.0118,-0.003,-0.0014,-0.0035,-0.0067,-0.0205,-0.0207,-0.0209,-0.0217,-0.0221,-0.0225,0,0,0,0,0,0,0.0228,0.0253,0.0272,0.028,0.0252,0.0211,0.0188,0.0184,0.0131,0.013,0.0087,0.0069,-0.0008,-0.0036,-0.0016,-0.0127,-0.0114,-0.0121,-0.0113,-0.0117,-0.012,-0.0114,-0.0027,0,0,0,0,0,0.0238,0.0258,0.0253,0.0254,0.0245,0.0219,0.0199,0.0187,0.0143,0.0123,0.0075,0.0023,-0.0038,-0.0073,-0.0134,-0.0209,-0.0223,-0.0236,-0.0239,-0.0241,-0.0249,-0.0292,-0.0299,-0.0218,-0.0218,-0.0218,0,0,0.023,0.0244,0.0255,0.0251,0.023,0.0199,0.0208,0.0171,0.0142,0.011,0.0045,-0.0001,-0.006,-0.0137,-0.0172,-0.0162,-0.027,-0.0244,-0.0246,-0.0252,-0.0295,-0.0303,-0.031,-0.022,-0.0219,-0.0219,0,0,0.0195,0.0234,0.0228,0.021,0.0188,0.0174,0.0169,0.0127,0.0109,0.0038,0.0018,-0.0038,-0.014,-0.0178,-0.0212,-0.0271,-0.0288,-0.0286,-0.0302,-0.0343,-0.035,-0.0356,-0.0373,-0.0381,-0.0284,-0.0284,-0.0284,0,0.0181,0.0189,0.0207,0.0181,0.0172,0.0168,0.0138,0.0105,0.0043,0.0021,0.0016,-0.0113,-0.016,-0.0238,-0.0254,-0.028,-0.0297,-0.0283,-0.0347,-0.0354,-0.036,-0.0376,-0.0384,-0.0285,-0.0285,-0.0285,-0.0285,0,0.0135,0.0139,0.0123,0.0117,0.01,0.0069,0.0051,0.0022,0.0007,-0.0024,-0.0104,-0.017,-0.0237,-0.026,-0.0284,-0.035,-0.0346,-0.0347,-0.0335,-0.0369,-0.0383,-0.0392,-0.0286,-0.0286,-0.0286,-0.0286,0,0,0.0104,0.01,0.0092,0.0097,0.0073,0.0057,0.0015,-0.002,-0.0037,-0.0109,-0.0151,-0.0253,-0.0272,-0.031,-0.034,-0.0378,-0.0433,-0.0383,-0.0385,-0.0394,-0.0514,-0.0464,-0.0468,-0.0449,-0.0451,-0.0452,-0.0501,0,0.006,0.003,0.0035,0.0005,-0.0004,-0.0004,-0.0035,-0.0067,-0.0097,-0.0144,-0.0206,-0.0267,-0.0294,-0.0322,-0.0372,-0.0425,-0.0459,-0.0419,-0.0484,-0.0486,-0.0434,-0.0478,-0.0458,-0.0508,-0.051,-0.0511,-0.0512,0,0.0007,0.0009,-0.0022,-0.0009,-0.0014,-0.0037,-0.0047,-0.0078,-0.0136,-0.0163,-0.023,-0.0275,-0.0358,-0.0362,-0.0477,-0.0452,-0.0486,-0.0518,-0.052,-0.0478,-0.0453,-0.0471,-0.0528,-0.0526,-0.0525,-0.0524,-0.0523,0,-0.001,-0.0029,-0.0036,-0.004,-0.0043,-0.0052,-0.0055,-0.0093,-0.0098,-0.0172,-0.0185,-0.0298,-0.0338,-0.0424,-0.0495,-0.0493,-0.06,-0.06,-0.0585,-0.0581,-0.0604,-0.0597,-0.067,-0.067,-0.067,-0.067,-0.067,0,-0.0046,-0.0055,-0.0041,-0.0047,-0.004,-0.0051,-0.0053,-0.0075,-0.0103,-0.0106,-0.0192,-0.0218,-0.0356,-0.0428,-0.0501,-0.057,-0.0607,-0.0599,-0.06,-0.0605,-0.0598,-0.0609,-0.0601,-0.0672,-0.0671,-0.0671,-0.0671,0,-0.0075,-0.0074,-0.0069,-0.0059,-0.005,-0.0046,-0.0018,-0.001,-0.005,-0.0055,-0.0074,-0.0169,-0.0266,-0.0381,-0.051,-0.0553,-0.0634,-0.0639,-0.0625,-0.0621,-0.0586,-0.0578,-0.0645,-0.0644,-0.0643,-0.0642,-0.0641,0,-0.0091,-0.0096,-0.0064,-0.0035,-0.0029,-0.0008,0.0022,0.0012,0.0029,-0.0013,-0.001,-0.0107,-0.0175,-0.0319,-0.0454,-0.0595,-0.0598,-0.0634,-0.0633,-0.0595,-0.0589,-0.0582,-0.0576,-0.064,-0.0639,-0.0639,-0.0639,0,-0.0104,-0.0096,-0.0077,-0.0012,0.0028,0.0085,0.0118,0.0127,0.0121,0.0092,0.006,-0.0032,-0.0132,-0.0285,-0.0388,-0.0488,-0.0622,-0.0625,-0.0628,-0.0627,-0.0589,-0.0583,-0.0578,-0.0636,-0.0636,-0.0636,-0.0637,0,-0.01,-0.0076,-0.0031,0.0028,0.0094,0.0165,0.0168,0.02,0.0209,0.0155,0.0144,0.0016,-0.0074,-0.0227,-0.0329,-0.0425,-0.0448,-0.0467,-0.0478,-0.0484,-0.0424,-0.0352,-0.0336,0,0,0,0,0,-0.0075,-0.0028,0.0022,0.0097,0.0163,0.0219,0.0247,0.0243,0.0221,0.0224,0.0187,0.0099,-0.0062,-0.0154,-0.0239,-0.0323,-0.0477,-0.0424,-0.0506,-0.0617,-0.0621,-0.0575,0,0,0,0,0,0,-0.0047,0.0001,0.0035,0.0156,0.0226,0.0315,0.0342,0.0319,0.0309,0.0259,0.0169,0.0114,-0.0056,0.0006,-0.0222,-0.0259,-0.0315,-0.0512,-0.0513,-0.0615,-0.0618,-0.0621,-0.0575,0,0,0,0,0]}]]